Погода в НПС Дружбе

Россия / Самарская область     53°04′35″N   50°13′58″E
темп.,
°C
ветер,
м/с
пор.,
м/с
влажн.,
%
обл.,
%
осадки,
мм/ч
давл.,
гПа
погр.,
м
2 декабря, чт
чт201:00−1з5108619 0.0 998466
04:00−3зюз4108710 0.0 1000318
07:00−3зюз49875 0.0 1002318
10:00−2юз5118110 0.0 1004453
13:000юз6117696 0.0 1005852
16:000юз71083100 0.1 1007829
19:00−1зюз6108492 0.1 1009778
22:00−3зюз5117837 0.2 1011452
3 декабря, пт
пт301:00−3юз6118095 0.0 1012491
04:00−3юз61280100 0.0 1012445
07:00−2ююз71495100 0.7 1012600
10:00−1юз71496100 1.6 1013544
13:00+1юз71497100 0.6 1013528
16:00+2юз61394100 0.6 1015457
19:00+2юз61295100 0.0 1016402
22:00+2ююз61397100 0.0 1017393
4 декабря, сб
сб401:00+2ююз61495100 0.0 1017428
04:00+3ююз8178299 0.0 1017497
07:00+2ююз8187899 0.0 1017490
10:00+2ююз91990100 0.0 1016584
13:00+4ююз111886100 0.0 1014728
16:00+4ююз101986100 0.0 1013714
19:00+4ююз91791100 1.1 1012900
22:00+4юз61394100 4.4 1012975
5 декабря, вс
вс501:00+1з3799100 4.6 1012351
04:000зсз37100100 8.3 1013175
07:00−2з36955 0.8 1015126
10:00−2з37935 0.8 1017270
13:00−1зсз4679100 0.0 1019516
16:00−2зсз3482100 0.0 1020231
19:00−4з229346 0.0 102132
22:00−4з22935 0.0 102337
6 декабря, пн
пн601:00−4зсз229271 0.0 102436
04:00−4зсз119366 0.0 102512
07:00−4сз1191100 0.0 102617
10:00−3ссз1285100 0.0 102894
13:00−2с2374100 0.0 1029495
16:00−3св3483100 0.0 1030171
19:00−4св368990 0.0 1031260
22:00−5св46895 0.0 1033247